Tracking 29892 objects as of 21-Nov-2024
HD Live streaming from Space Station
objects crossing your sky now

STARLINK-31777

Track STARLINK-31777 now!
10-day predictions
STARLINK-31777 is classified as:


NORAD ID: 59619
Int'l Code: 2024-080U
Perigee: 450.9 km
Apogee: 452.1 km
Inclination: 43.0 °
Period: 93.5 minutes
Semi major axis: 6822 km
RCS: Unknown
Launch date: April 28, 2024
Source: United States (US)
Launch site: AIR FORCE EASTERN TEST RANGE (AFETR)
Your satellite tracking list
Your tracking list is empty




NASA's NSSDC Master Catalog

Two Line Element Set (TLE):
1 59619U 24080U   24325.96306408  .00023377  00000-0  56712-3 0  9992
2 59619  43.0020 212.1865 0000826 274.6747  85.4015 15.40595160 33082
Source of the keplerian elements: AFSPC